Flag for France Weather past 2 weeks in Bastia, Corsica, France

Now
61 °F

Passing clouds.


Feels Like: 61 °F
Forecast: 48 / 59 °F
Wind: 8 mph from North

Location: Bastia Airport


UV Index: 5 (Moderate)

Visibility: N/A


Pressure: 30.09 "Hg

Humidity: 34%

Dew point: 32 °F

Location of BastiaLocation

Historic Weather in Bastia

°F

Bastia temperature yesterday

Maximum temperature yesterday: 66 °F (at 12:35 PM)
Minimum temperature yesterday: 50 °F (at 10:30 PM)
Average temperature yesterday: 60 °F

Past Weeks' High & Low Weather Summary

 TemperatureHumidityPressure
High72 °F (Apr 7, 10:30 AM)94% (Apr 2, 1:30 AM)30.12 "Hg (Apr 2, 1:30 AM)
Low43 °F (Apr 16, 4:00 AM)34% (Apr 16, 5:00 PM)29.42 "Hg (Apr 4, 8:00 AM)
Average58 °F78%29.96 "Hg
* Reported Apr 1 5:00 PM — Apr 16 5:30 PM, Bastia, Weather by CustomWeather, © 2014

Note: Actual official high and low records may vary slightly from our data, if they occured in-between our weather recording intervals... More about our weather records

Advertising

Historic Weather Conditions — Data for Previous 24 hours

 ConditionsComfort  
Time TempWeatherWind HumidityBarometerVisibility
5:30 PM
Apr 16
61 °FPassing clouds.7 mph36%30.09 "HgN/A
5:00 PM61 °FPassing clouds.8 mph34%30.12 "HgN/A
4:00 PM61 °FPassing clouds.9 mph42%30.12 "HgN/A
3:30 PM61 °FPassing clouds.10 mph42%30.12 "HgN/A
3:00 PM61 °FPassing clouds.12 mph39%30.12 "HgN/A
2:30 PM61 °FPassing clouds.13 mph45%30.12 "HgN/A
2:04 PM59 °FPassing clouds.13 mph45%30.12 "HgN/A
1:38 PM61 °FPassing clouds.13 mph48%30.12 "HgN/A
1:00 PM59 °FPassing clouds.14 mph48%30.12 "HgN/A
12:30 PM61 °FScattered clouds.12 mph52%30.12 "HgN/A
12:00 PM59 °FScattered clouds.8 mph39%30.12 "HgN/A
11:30 AM59 °FScattered clouds.6 mph36%30.12 "HgN/A
11:00 AM57 °FBroken clouds.7 mph48%30.12 "HgN/A
10:30 AM57 °FBroken clouds.13 mph51%30.12 "HgN/A
10:00 AM55 °FBroken clouds.7 mph59%30.12 "HgN/A
9:30 AM54 °FBroken clouds.1 mph72%30.12 "HgN/A
9:00 AM52 °FPartly sunny.2 mph72%30.09 "HgN/A
8:30 AM50 °FPartly sunny.No wind76%30.09 "HgN/A
8:00 AM50 °FScattered clouds.1 mph76%30.07 "HgN/A
7:30 AM45 °FPassing clouds.6 mph76%30.07 "HgN/A
7:00 AM43 °FPassing clouds.6 mph81%30.07 "HgN/A
6:30 AM43 °FPassing clouds.1 mph81%30.04 "HgN/A
6:00 AM43 °FClear.6 mph81%30.04 "Hg10 mi
5:30 AM43 °FClear.5 mph81%30.04 "Hg10 mi
5:00 AM45 °FClear.2 mph76%30.04 "Hg10 mi
4:30 AM45 °FPassing clouds.5 mph76%30.01 "HgN/A
4:00 AM43 °FClear.6 mph76%30.01 "Hg10 mi
3:30 AM45 °FClear.5 mph71%30.01 "Hg10 mi
3:00 AM46 °FClear.7 mph66%30.01 "HgN/A
2:30 AM46 °FClear.6 mph66%30.01 "HgN/A
1:00 AM48 °FClear.7 mph66%30.01 "HgN/A
12:30 AM46 °FClear.5 mph76%30.01 "Hg10 mi
12:00 AM48 °FClear.5 mph71%30.01 "Hg10 mi
11:00 PM
Apr 15
50 °FClear.6 mph67%30.01 "Hg10 mi
10:30 PM50 °FPassing clouds.3 mph71%30.01 "HgN/A
10:00 PM52 °FPassing clouds.3 mph67%30.01 "HgN/A
9:30 PM55 °FPassing clouds.3 mph59%29.98 "HgN/A
9:00 PM54 °FSunny.6 mph63%29.98 "Hg10 mi
8:30 PM55 °FSunny.6 mph59%29.95 "Hg10 mi
8:00 PM57 °FPassing clouds.6 mph59%29.95 "HgN/A
7:30 PM59 °FPassing clouds.7 mph59%29.95 "HgN/A
7:00 PM61 °FPassing clouds.10 mph55%29.92 "HgN/A
6:30 PM63 °FPassing clouds.9 mph56%29.92 "HgN/A
6:00 PM63 °FPassing clouds.8 mph52%29.89 "HgN/A
Weather by CustomWeather, © 2014

See weather overview